Eindhoven, Netherlands

6:33 PM CET on December 18, 2017 (GMT +0100)
Eindhoven Air Base

Weather History for EHEH - December, 2012

Change the Weather History Date:

Monday, December 24, 2012

  Actual Average Record
Temperature  
Mean Temperature 50 °F -  
Max Temperature 55 °F 41 °F 57 °F (2015)
Min Temperature 45 °F 31 °F 21 °F (1996)
Degree Days  
Heating Degree Days 15    
Moisture  
Dew Point 48 °F    
Average Humidity 94    
Maximum Humidity 100    
Minimum Humidity 69    
Precipitation  
Precipitation 0.03 in - - ()
Sea Level Pressure  
Sea Level Pressure 29.66 in    
Wind  
Wind Speed 9 mph ()    
Max Wind Speed 23 mph    
Max Gust Speed -    
Visibility 5.6 miles    
Events Rain    
Averages and records for this station are not official NWS values.
T = Trace of Precipitation, MM = Missing Value Source: Averaged Metar Reports

Daily Weather History Graph

Daily Weather History Graph

Search for Another Location

Airport or City:

Trip Planner

Search our weather history database for the weather conditions in past years. The results will help you decide how hot, cold, wet, or windy it might be!

Date:

Astronomy

Dec. 24, 2012 Rise Set
Actual Time 8:42 AM CET 4:33 PM CET
Civil Twilight 8:02 AM CET 5:13 PM CET
Nautical Twilight 7:19 AM CET 5:56 PM CET
Astronomical Twilight 6:38 AM CET 6:37 PM CET
Moon 2:00 PM CET (12/24) 4:55 AM CET (12/24)
Length of Visible Light 9h 11m
Length of Day
7h 50m
Waxing Gibbous, 86% of the Moon is Illuminated
Dec 24
Waxing Gibbous
Dec 28
Full
Jan 5
Last Quarter
Jan 11
New
Jan 19
First Quarter

Hourly Weather History & Observations

Time (CET) Temp. Windchill Dew Point Humidity Pressure Visibility Wind Dir Wind Speed Gust Speed Precip Events Conditions
12:04 AM 48.2 °F - 48.2 °F 100% 29.77 in 4.3 mi SSW 10.4 mph - N/A Rain Light Rain
12:25 AM 48.2 °F - 48.2 °F 100% 29.77 in 3.7 mi SSW 11.5 mph - N/A Rain Light Rain Showers
12:26 AM 48.2 °F - 48.2 °F 100% 29.77 in 5.0 mi SSW 12.7 mph - N/A Rain Light Rain Showers
12:39 AM 48.2 °F - 48.2 °F 100% 29.77 in 6.2 mi SSW 12.7 mph - N/A Rain Light Rain
12:55 AM 48.2 °F - 48.2 °F 100% 29.77 in 6.2 mi SSW 10.4 mph - N/A Rain Light Rain
12:59 AM 48.2 °F - 48.2 °F 100% 29.77 in 6.2 mi SSW 11.5 mph - N/A Rain Light Rain
1:00 AM 49 °F - 48 °F 97% 29.79 in 9 mi SSW 11.2 mph - - Rain Light Rain
1:05 AM 48.2 °F - 48.2 °F 100% 29.77 in 6.2 mi SSW 10.4 mph - N/A Rain Light Rain
1:25 AM 48.2 °F - 48.2 °F 100% 29.77 in 6.2 mi SW 11.5 mph - N/A Rain Light Rain
1:51 AM 48.2 °F - 48.2 °F 100% 29.77 in 6.2 mi SW 9.2 mph - N/A Rain Light Drizzle
1:55 AM 48.2 °F - 48.2 °F 100% 29.77 in 6.2 mi SW 9.2 mph - N/A   Light Drizzle
2:06 AM 48.2 °F - 48.2 °F 100% 29.77 in 6.2 mi SW 8.1 mph - N/A Rain Drizzle
2:10 AM 48.2 °F - 48.2 °F 100% 29.77 in 6.2 mi SW 8.1 mph - N/A   Light Drizzle
2:25 AM 48.2 °F - 48.2 °F 100% 29.77 in 6.2 mi SW 8.1 mph - N/A   Overcast
2:55 AM 48.2 °F - 48.2 °F 100% 29.77 in 6.2 mi SW 6.9 mph - N/A Rain Light Rain
3:25 AM 48.2 °F - 46.4 °F 93% 29.77 in 6.2 mi SSW 6.9 mph - N/A   Drizzle
3:55 AM 46.4 °F 43.5 °F 46.4 °F 100% 29.77 in 6.2 mi SSW 5.8 mph - N/A   Drizzle
4:00 AM 47 °F - 46 °F 96% 29.78 in 10 mi SSW 6.7 mph - - Rain Light Drizzle
4:25 AM 46.4 °F 42.9 °F 46.4 °F 100% 29.77 in 6.2 mi SSW 6.9 mph - N/A   Overcast
4:55 AM 46.4 °F 42.9 °F 46.4 °F 100% 29.77 in 4.3 mi South 6.9 mph - N/A   Drizzle
5:02 AM 46.4 °F 42.9 °F 46.4 °F 100% 29.77 in 5.0 mi South 6.9 mph - N/A   Drizzle
5:15 AM 46.4 °F 43.5 °F 46.4 °F 100% 29.77 in 6.2 mi South 5.8 mph - N/A   Light Drizzle
5:25 AM 46.4 °F 43.5 °F 46.4 °F 100% 29.74 in 6.2 mi South 5.8 mph - N/A   Overcast
5:55 AM 46.4 °F 44.3 °F 46.4 °F 100% 29.74 in 5.6 mi South 4.6 mph - N/A   Overcast
6:25 AM 46.4 °F 45.2 °F 46.4 °F 100% 29.74 in 6.2 mi SSE 3.5 mph - N/A   Overcast
6:31 AM 46.4 °F 45.2 °F 46.4 °F 100% 29.74 in 6.2 mi SE 3.5 mph - N/A   Overcast
6:35 AM 46.4 °F 45.2 °F 46.4 °F 100% 29.74 in 4.3 mi SE 3.5 mph - N/A   Overcast
6:39 AM 46.4 °F 45.2 °F 46.4 °F 100% 29.74 in 3.7 mi SE 3.5 mph - N/A   Overcast
6:42 AM 46.4 °F 45.2 °F 46.4 °F 100% 29.74 in - SE 3.5 mph - N/A   Overcast
6:55 AM 46.4 °F 44.3 °F 46.4 °F 100% 29.74 in - SE 4.6 mph - N/A   Drizzle
7:00 AM 46 °F - 46 °F 99% 29.75 in 2 mi SE 4.5 mph - - Rain Drizzle
7:00 AM 46.4 °F 44.3 °F 46.4 °F 100% 29.74 in 2.2 mi SE 4.6 mph - N/A   Drizzle
7:04 AM 46.4 °F 45.2 °F 46.4 °F 100% 29.74 in - SE 3.5 mph - N/A   Heavy Drizzle
7:12 AM 46.4 °F 45.2 °F 46.4 °F 100% 29.74 in - ESE 3.5 mph - N/A   Heavy Drizzle
7:18 AM 46.4 °F 45.2 °F 46.4 °F 100% 29.74 in - ESE 3.5 mph - N/A   Heavy Drizzle
7:25 AM 46.4 °F 44.3 °F 46.4 °F 100% 29.74 in 2.5 mi ESE 4.6 mph - N/A   Drizzle
7:29 AM 46.4 °F 44.3 °F 46.4 °F 100% 29.74 in - ESE 4.6 mph - N/A   Heavy Drizzle
7:33 AM 46.4 °F 44.3 °F 46.4 °F 100% 29.71 in - ESE 4.6 mph - N/A   Drizzle
7:37 AM 46.4 °F 45.2 °F 46.4 °F 100% 29.71 in - ESE 3.5 mph - N/A   Heavy Drizzle
7:55 AM 46.4 °F 44.3 °F 46.4 °F 100% 29.71 in 1.7 mi ESE 4.6 mph - N/A Rain Rain
7:56 AM 46.4 °F 44.3 °F 46.4 °F 100% 29.71 in 1.7 mi ESE 4.6 mph - N/A Rain Light Rain
7:59 AM 46.4 °F 44.3 °F 46.4 °F 100% 29.71 in 1.7 mi ESE 4.6 mph - N/A Rain Light Rain
8:03 AM 46.4 °F 44.3 °F 46.4 °F 100% 29.71 in 1.8 mi ESE 4.6 mph - N/A Rain Light Rain
8:07 AM 46.4 °F 44.3 °F 46.4 °F 100% 29.71 in 1.9 mi ESE 4.6 mph - N/A Rain Drizzle
8:11 AM 46.4 °F 45.2 °F 46.4 °F 100% 29.71 in - ESE 3.5 mph - N/A   Heavy Drizzle
8:25 AM 46.4 °F 44.3 °F 46.4 °F 100% 29.71 in 1.5 mi East 4.6 mph - N/A Rain Light Rain
8:55 AM 46.4 °F 43.5 °F 46.4 °F 100% 29.71 in 1.4 mi ESE 5.8 mph - N/A Rain Light Rain
9:05 AM 46.4 °F 43.5 °F 46.4 °F 100% 29.68 in - ESE 5.8 mph - N/A Rain Light Rain
9:06 AM 46.4 °F 43.5 °F 46.4 °F 100% 29.68 in 3.1 mi SE 5.8 mph - N/A   Overcast
9:09 AM 46.4 °F 43.5 °F 46.4 °F 100% 29.68 in 3.1 mi SE 5.8 mph - N/A   Overcast
9:25 AM 46.4 °F 42.9 °F 46.4 °F 100% 29.68 in - SE 6.9 mph - N/A   Mostly Cloudy
9:44 AM 46.4 °F 43.5 °F 46.4 °F 100% 29.68 in - SSE 5.8 mph - N/A   Mostly Cloudy
9:48 AM 46.4 °F 43.5 °F 46.4 °F 100% 29.68 in 3.1 mi SSE 5.8 mph - N/A   Mostly Cloudy
9:55 AM 48.2 °F - 48.2 °F 100% 29.68 in 3.1 mi SSE 6.9 mph - N/A   Overcast
10:00 AM 48 °F - 48 °F 99% 29.70 in 3 mi SSE 6.7 mph - - Rain Rain
10:02 AM 48.2 °F - 48.2 °F 100% 29.68 in 3.1 mi SSE 8.1 mph - N/A   Overcast
10:15 AM 48.2 °F - 48.2 °F 100% 29.68 in 3.7 mi SSE 8.1 mph - N/A   Overcast
10:25 AM 48.2 °F - 48.2 °F 100% 29.68 in 5.0 mi SSE 8.1 mph - N/A   Overcast
10:45 AM 51.8 °F - 51.8 °F 100% 29.68 in 6.2 mi South 9.2 mph - N/A   Overcast
10:55 AM 51.8 °F - 51.8 °F 100% 29.68 in 6.2 mi South 10.4 mph - N/A   Overcast
11:16 AM 53.6 °F - 51.8 °F 94% 29.68 in 6.2 mi SSW 11.5 mph - N/A   Overcast
11:25 AM 53.6 °F - 51.8 °F 94% 29.68 in 6.2 mi SSW 13.8 mph - N/A   Overcast
11:55 AM 53.6 °F - 51.8 °F 94% 29.65 in 6.2 mi SSW 15.0 mph - N/A   Overcast
12:13 PM 53.6 °F - 51.8 °F 94% 29.65 in 6.2 mi SSW 12.7 mph - N/A   Mostly Cloudy
12:25 PM 53.6 °F - 51.8 °F 94% 29.65 in 6.2 mi SSW 10.4 mph - N/A   Overcast
12:30 PM 53.6 °F - 51.8 °F 94% 29.65 in 6.2 mi SSW 10.4 mph - N/A   Overcast
12:34 PM 53.6 °F - 51.8 °F 94% 29.65 in 6.2 mi South 10.4 mph - N/A   Overcast
12:55 PM 53.6 °F - 51.8 °F 94% 29.62 in 6.2 mi South 10.4 mph - N/A   Overcast
1:00 PM 53 °F - 51 °F 92% 29.64 in 10 mi South 11.2 mph - -   Partly Cloudy
1:25 PM 53.6 °F - 51.8 °F 94% 29.62 in 6.2 mi South 10.4 mph - N/A   Overcast
1:55 PM 53.6 °F - 51.8 °F 94% 29.59 in 6.2 mi South 10.4 mph - N/A   Overcast
2:25 PM 53.6 °F - 50.0 °F 88% 29.56 in 6.2 mi South 6.9 mph - N/A   Overcast
2:55 PM 53.6 °F - 50.0 °F 88% 29.56 in 6.2 mi South 8.1 mph - N/A   Overcast
3:25 PM 53.6 °F - 50.0 °F 88% 29.53 in 6.2 mi South 8.1 mph - N/A   Overcast
3:55 PM 53.6 °F - 50.0 °F 88% 29.50 in 6.2 mi SSE 9.2 mph - N/A   Overcast
4:00 PM 53 °F - 50 °F 85% 29.53 in 17 mi SSE 8.9 mph - -   Overcast
4:25 PM 53.6 °F - 50.0 °F 88% 29.50 in 6.2 mi South 10.4 mph - N/A   Overcast
4:55 PM 53.6 °F - 48.2 °F 82% 29.50 in 6.2 mi South 11.5 mph - N/A   Overcast
5:25 PM 51.8 °F - 46.4 °F 82% 29.50 in 6.2 mi South 11.5 mph - N/A   Scattered Clouds
5:55 PM 51.8 °F - 46.4 °F 82% 29.50 in 6.2 mi South 11.5 mph - N/A   Scattered Clouds
6:25 PM 53.6 °F - 46.4 °F 77% 29.50 in 6.2 mi South 11.5 mph - N/A   Overcast
6:55 PM 53.6 °F - 46.4 °F 77% 29.50 in 6.2 mi SSW 16.1 mph - N/A   Mostly Cloudy
7:00 PM 53 °F - 46 °F 69% 29.51 in 28 mi SSW 15.7 mph - -   Partly Cloudy
7:25 PM 53.6 °F - 46.4 °F 77% 29.50 in 6.2 mi SSW 18.4 mph - N/A   Mostly Cloudy
7:33 PM 53.6 °F - 46.4 °F 77% 29.50 in 6.2 mi SSW 19.6 mph - N/A   Mostly Cloudy
7:55 PM 53.6 °F - 46.4 °F 77% 29.47 in 6.2 mi SSW 19.6 mph - N/A   Mostly Cloudy
8:25 PM 53.6 °F - 48.2 °F 82% 29.50 in 6.2 mi SW 19.6 mph - N/A   Overcast
8:55 PM 55.4 °F - 48.2 °F 77% 29.50 in 6.2 mi SW 20.7 mph - N/A   Overcast
9:25 PM 55.4 °F - 48.2 °F 77% 29.53 in 6.2 mi SW 23.0 mph - N/A   Overcast
9:54 PM 53.6 °F - 48.2 °F 82% 29.53 in 6.2 mi SW 18.4 mph - N/A   Mostly Cloudy
9:55 PM 53.6 °F - 48.2 °F 82% 29.53 in 6.2 mi SW 17.3 mph - N/A   Overcast
9:56 PM 53.6 °F - 48.2 °F 82% 29.53 in 6.2 mi SW 18.4 mph - N/A   Mostly Cloudy
9:59 PM 53.6 °F - 48.2 °F 82% 29.53 in 6.2 mi SW 18.4 mph - N/A   Mostly Cloudy
10:00 PM 54 °F - 48 °F 75% 29.55 in 28 mi SW 17.9 mph - -   Scattered Clouds
10:03 PM 53.6 °F - 48.2 °F 82% 29.53 in 6.2 mi SW 18.4 mph - N/A   Mostly Cloudy
10:07 PM 53.6 °F - 48.2 °F 82% 29.53 in 6.2 mi SW 18.4 mph - N/A   Overcast
10:19 PM 53.6 °F - 48.2 °F 82% 29.53 in 6.2 mi SW 17.3 mph - N/A   Mostly Cloudy
10:25 PM 53.6 °F - 48.2 °F 82% 29.53 in 6.2 mi SW 17.3 mph - N/A   Overcast
10:29 PM 53.6 °F - 48.2 °F 82% 29.53 in 6.2 mi SW 15.0 mph - N/A   Mostly Cloudy
10:34 PM 53.6 °F - 48.2 °F 82% 29.53 in 6.2 mi SW 15.0 mph - N/A   Overcast
10:55 PM 53.6 °F - 48.2 °F 82% 29.53 in 6.2 mi WSW 13.8 mph - N/A   Overcast
11:25 PM 51.8 °F - 48.2 °F 88% 29.53 in 6.2 mi SW 11.5 mph - N/A   Drizzle
11:42 PM 51.8 °F - 50.0 °F 94% 29.53 in 6.2 mi WSW 11.5 mph - N/A Rain Light Rain
11:48 PM 51.8 °F - 50.0 °F 94% 29.53 in 6.2 mi WSW 10.4 mph - N/A Rain Light Rain
11:55 PM 51.8 °F - 50.0 °F 94% 29.53 in 6.2 mi WSW 9.2 mph - N/A Rain Light Rain